User: anonymous   Login
Location: Caltech
(34.1382°N, 118.1253°W)
Time: 11:56:51
(UTC-07:00)
Language:

GPS 2-04 Rocket1 - Orbit

View from above orbital plane
View from above orbital plane
View from above satellite
View from above satellite

Ground track
Ground track

The orbit data is extracted from the following two-line orbital elements,

1 20303U 89085B   15241.27854610  .00006249  00000-0  25185-3 0  9999
2 20303 035.6305 173.9992 0120074 136.6218 354.4790 15.17827300400317
Epoch (UTC): 29 August 2015 06:41:06
Eccentricity: 0.0120074
inclination: 35.6305°
perigee height: 429 km
apogee height: 595 km
right ascension of ascending node: 173.9992°
argument of perigee: 136.6218°
revolutions per day: 15.17827300
mean anomaly at epoch: 354.4790°
orbit number at epoch: 40031

The dashed part of the orbit path shows where the satellite is in the earth's shadow,  

DLR